Time,TemperatureF,DewpointF,PressureIn,WindDirection,WindDirectionDegrees,WindSpeedMPH,WindSpeedGustMPH,Humidity,HourlyPrecipIn,Conditions,Clouds,dailyrainin,SoftwareType,DateUTC
2013-07-25 00:03:00,66.2,58.5,29.95,West,270,0.0,0.0,76,0.00,,,0.00,meteohub,2013-07-25 05:03:00,
2013-07-25 00:08:00,66.2,58.8,29.95,West,270,0.0,0.0,77,0.00,,,0.00,meteohub,2013-07-25 05:08:00,
2013-07-25 00:13:00,66.0,58.6,29.95,West,269,0.0,0.0,77,0.00,,,0.00,meteohub,2013-07-25 05:13:00,
2013-07-25 00:18:00,66.0,58.6,29.95,West,270,0.0,0.0,77,0.00,,,0.00,meteohub,2013-07-25 05:18:00,
2013-07-25 00:24:00,66.0,58.6,29.96,West,269,0.0,0.0,77,0.00,,,0.00,meteohub,2013-07-25 05:24:00,
2013-07-25 00:29:00,66.0,58.6,29.95,West,269,0.0,0.0,77,0.00,,,0.00,meteohub,2013-07-25 05:29:00,
2013-07-25 00:34:00,66.0,58.6,29.95,West,269,0.0,0.0,77,0.00,,,0.00,meteohub,2013-07-25 05:34:00,
2013-07-25 00:39:00,65.8,58.8,29.94,West,269,0.0,0.0,78,0.00,,,0.00,meteohub,2013-07-25 05:39:00,
2013-07-25 00:44:00,65.8,58.8,29.94,West,271,0.0,0.0,78,0.00,,,0.00,meteohub,2013-07-25 05:44:00,
2013-07-25 00:49:00,65.8,58.8,29.94,West,271,0.0,1.0,78,0.00,,,0.00,meteohub,2013-07-25 05:49:00,
2013-07-25 00:55:00,65.8,58.8,29.94,West,271,0.0,1.0,78,0.00,,,0.00,meteohub,2013-07-25 05:55:00,
2013-07-25 01:00:00,65.8,58.8,29.94,WSW,256,0.0,0.0,78,0.00,,,0.00,meteohub,2013-07-25 06:00:00,
2013-07-25 01:05:00,65.8,58.8,29.94,WSW,248,0.0,2.0,78,0.00,,,0.00,meteohub,2013-07-25 06:05:00,
2013-07-25 01:10:00,65.8,58.8,29.94,WSW,248,0.0,2.0,78,0.00,,,0.00,meteohub,2013-07-25 06:10:00,
2013-07-25 01:15:00,65.8,58.8,29.94,WSW,248,0.0,0.0,78,0.00,,,0.00,meteohub,2013-07-25 06:15:00,
2013-07-25 01:21:00,65.8,59.2,29.94,WSW,248,0.0,0.0,79,0.00,,,0.00,meteohub,2013-07-25 06:21:00,
2013-07-25 01:26:00,65.8,59.2,29.93,WSW,248,0.0,0.0,79,0.00,,,0.00,meteohub,2013-07-25 06:26:00,
2013-07-25 01:31:00,65.8,59.2,29.93,WSW,248,0.0,0.0,79,0.00,,,0.00,meteohub,2013-07-25 06:31:00,
2013-07-25 01:36:00,66.0,59.4,29.93,WSW,248,0.0,0.0,79,0.00,,,0.00,meteohub,2013-07-25 06:36:00,
2013-07-25 01:41:00,66.0,59.4,29.92,WSW,248,0.0,0.0,79,0.00,,,0.00,meteohub,2013-07-25 06:41:00,
2013-07-25 01:46:00,66.0,59.4,29.92,WSW,248,0.0,0.0,79,0.00,,,0.00,meteohub,2013-07-25 06:46:00,
2013-07-25 01:51:00,66.0,59.4,29.92,WSW,248,0.0,0.0,79,0.00,,,0.00,meteohub,2013-07-25 06:51:00,
2013-07-25 01:56:00,65.8,59.2,29.91,WSW,248,0.0,0.0,79,0.00,,,0.00,meteohub,2013-07-25 06:56:00,
2013-07-25 02:01:00,65.8,59.2,29.91,WSW,248,0.0,0.0,79,0.00,,,0.00,meteohub,2013-07-25 07:01:00,
2013-07-25 02:07:00,65.8,59.2,29.92,WSW,248,0.0,0.0,79,0.00,,,0.00,meteohub,2013-07-25 07:07:00,
2013-07-25 02:12:00,65.8,59.2,29.91,WSW,248,0.0,0.0,79,0.00,,,0.00,meteohub,2013-07-25 07:12:00,
2013-07-25 02:17:00,65.8,59.2,29.91,WSW,248,0.0,0.0,79,0.00,,,0.00,meteohub,2013-07-25 07:17:00,
2013-07-25 02:22:00,65.8,59.2,29.91,WSW,248,0.0,0.0,79,0.00,,,0.00,meteohub,2013-07-25 07:22:00,
2013-07-25 02:27:00,65.8,59.2,29.91,WSW,248,0.0,0.0,79,0.00,,,0.00,meteohub,2013-07-25 07:27:00,
2013-07-25 02:32:00,65.8,59.2,29.91,WSW,248,0.0,0.0,79,0.00,,,0.00,meteohub,2013-07-25 07:32:00,
2013-07-25 02:37:00,65.8,59.2,29.91,WSW,248,0.0,0.0,79,0.00,,,0.00,meteohub,2013-07-25 07:37:00,
2013-07-25 02:42:00,65.8,59.2,29.91,WSW,248,0.0,0.0,79,0.00,,,0.00,meteohub,2013-07-25 07:42:00,
2013-07-25 02:47:00,65.8,59.2,29.91,WSW,248,0.0,3.0,79,0.00,,,0.00,meteohub,2013-07-25 07:47:00,
2013-07-25 02:52:00,65.8,59.2,29.91,WSW,248,0.0,3.0,79,0.00,,,0.00,meteohub,2013-07-25 07:52:00,
2013-07-25 02:58:00,65.8,58.8,29.91,WSW,248,0.0,3.0,78,0.00,,,0.00,meteohub,2013-07-25 07:58:00,
2013-07-25 03:03:00,65.8,58.8,29.91,WSW,248,0.0,1.0,78,0.00,,,0.00,meteohub,2013-07-25 08:03:00,
2013-07-25 03:08:00,65.8,58.8,29.91,WSW,248,0.0,1.0,78,0.00,,,0.00,meteohub,2013-07-25 08:08:00,
2013-07-25 03:13:00,66.0,59.0,29.91,WSW,248,0.0,0.0,78,0.00,,,0.00,meteohub,2013-07-25 08:13:00,
2013-07-25 03:18:00,66.0,59.0,29.91,WSW,248,0.0,0.0,78,0.00,,,0.00,meteohub,2013-07-25 08:18:00,
2013-07-25 03:23:00,66.0,59.0,29.91,WSW,248,0.0,0.0,78,0.00,,,0.00,meteohub,2013-07-25 08:23:00,
2013-07-25 03:28:00,66.0,59.0,29.91,WSW,248,0.0,0.0,78,0.00,,,0.00,meteohub,2013-07-25 08:28:00,
2013-07-25 03:33:00,66.0,59.0,29.91,WSW,248,0.0,0.0,78,0.00,,,0.00,meteohub,2013-07-25 08:33:00,
2013-07-25 03:38:00,66.0,59.0,29.91,WSW,248,0.0,0.0,78,0.00,,,0.00,meteohub,2013-07-25 08:38:00,
2013-07-25 03:44:00,66.0,59.0,29.92,WSW,248,0.0,0.0,78,0.00,,,0.00,meteohub,2013-07-25 08:44:00,
2013-07-25 03:49:00,66.2,59.2,29.92,WSW,248,0.0,0.0,78,0.00,,,0.00,meteohub,2013-07-25 08:49:00,
2013-07-25 03:54:00,66.4,59.7,29.92,WSW,248,0.0,0.0,79,0.01,,,0.01,meteohub,2013-07-25 08:54:00,
2013-07-25 03:59:00,66.4,59.7,29.92,WSW,248,0.0,0.0,79,0.01,,,0.01,meteohub,2013-07-25 08:59:00,
2013-07-25 04:04:00,66.4,60.1,29.92,WSW,248,0.0,1.0,80,0.02,,,0.02,meteohub,2013-07-25 09:04:00,
2013-07-25 04:09:00,66.4,60.1,29.92,WSW,248,0.0,1.0,80,0.02,,,0.02,meteohub,2013-07-25 09:09:00,
2013-07-25 04:15:00,66.2,59.9,29.92,WSW,248,0.0,1.0,80,0.02,,,0.02,meteohub,2013-07-25 09:15:00,
2013-07-25 04:20:00,66.0,59.7,29.91,WSW,248,0.0,0.0,80,0.02,,,0.02,meteohub,2013-07-25 09:20:00,
2013-07-25 04:26:00,65.8,59.5,29.91,WSW,248,0.0,0.0,80,0.02,,,0.02,meteohub,2013-07-25 09:26:00,
2013-07-25 04:31:00,65.7,59.7,29.92,WSW,248,0.0,0.0,81,0.02,,,0.02,meteohub,2013-07-25 09:31:00,
2013-07-25 04:36:00,65.5,59.5,29.92,WSW,248,0.0,0.0,81,0.02,,,0.02,meteohub,2013-07-25 09:36:00,
2013-07-25 04:41:00,65.3,59.4,29.92,WSW,248,0.0,0.0,81,0.02,,,0.02,meteohub,2013-07-25 09:41:00,
2013-07-25 04:47:00,65.1,59.2,29.92,WSW,248,0.0,0.0,81,0.02,,,0.02,meteohub,2013-07-25 09:47:00,
2013-07-25 04:52:00,64.9,59.0,29.92,WSW,248,0.0,0.0,81,0.01,,,0.02,meteohub,2013-07-25 09:52:00,
2013-07-25 04:57:00,64.8,59.2,29.91,WSW,248,0.0,0.0,82,0.01,,,0.02,meteohub,2013-07-25 09:57:00,
2013-07-25 05:02:00,64.6,59.0,29.91,WSW,248,0.0,0.0,82,0.00,,,0.02,meteohub,2013-07-25 10:02:00,
2013-07-25 05:07:00,64.2,58.6,29.91,WSW,248,0.0,0.0,82,0.00,,,0.02,meteohub,2013-07-25 10:07:00,
2013-07-25 05:13:00,64.2,58.6,29.91,WSW,248,0.0,0.0,82,0.00,,,0.02,meteohub,2013-07-25 10:13:00,
2013-07-25 05:18:00,64.0,58.5,29.91,WSW,248,0.0,0.0,82,0.00,,,0.02,meteohub,2013-07-25 10:18:00,
2013-07-25 05:23:00,63.9,58.6,29.91,WSW,248,0.0,0.0,83,0.00,,,0.02,meteohub,2013-07-25 10:23:00,
2013-07-25 05:28:00,63.9,58.6,29.91,WSW,248,0.0,0.0,83,0.00,,,0.02,meteohub,2013-07-25 10:28:00,
2013-07-25 05:33:00,63.9,59.0,29.90,WSW,248,0.0,0.0,84,0.00,,,0.02,meteohub,2013-07-25 10:33:00,
2013-07-25 05:39:00,63.7,58.8,29.91,WSW,248,0.0,0.0,84,0.00,,,0.02,meteohub,2013-07-25 10:39:00,
2013-07-25 05:44:00,63.5,58.6,29.91,WSW,248,0.0,0.0,84,0.00,,,0.02,meteohub,2013-07-25 10:44:00,
2013-07-25 05:49:00,63.3,58.5,29.91,WSW,248,0.0,0.0,84,0.00,,,0.02,meteohub,2013-07-25 10:49:00,
2013-07-25 05:54:00,63.1,58.3,29.91,WSW,248,0.0,0.0,84,0.00,,,0.02,meteohub,2013-07-25 10:54:00,
2013-07-25 05:59:00,63.1,58.6,29.91,WSW,248,0.0,0.0,85,0.00,,,0.02,meteohub,2013-07-25 10:59:00,
2013-07-25 06:04:00,63.0,58.5,29.91,WSW,248,0.0,0.0,85,0.00,,,0.02,meteohub,2013-07-25 11:04:00,
2013-07-25 06:09:00,62.8,58.3,29.91,WSW,248,0.0,0.0,85,0.00,,,0.02,meteohub,2013-07-25 11:09:00,
2013-07-25 06:15:00,62.8,58.3,29.91,WSW,248,0.0,0.0,85,0.00,,,0.02,meteohub,2013-07-25 11:15:00,
2013-07-25 06:20:00,62.8,58.3,29.91,WSW,248,0.0,0.0,85,0.00,,,0.02,meteohub,2013-07-25 11:20:00,
2013-07-25 06:25:00,62.4,57.9,29.91,WSW,248,0.0,0.0,85,0.00,,,0.02,meteohub,2013-07-25 11:25:00,
2013-07-25 06:30:00,62.4,58.1,29.91,WSW,248,0.0,1.0,86,0.00,,,0.02,meteohub,2013-07-25 11:30:00,
2013-07-25 06:35:00,62.4,58.1,29.91,WSW,248,0.0,1.0,86,0.00,,,0.02,meteohub,2013-07-25 11:35:00,
2013-07-25 06:40:00,62.2,57.9,29.91,WSW,248,0.0,1.0,86,0.00,,,0.02,meteohub,2013-07-25 11:40:00,
2013-07-25 06:46:00,62.2,57.9,29.91,WSW,248,0.0,0.0,86,0.00,,,0.02,meteohub,2013-07-25 11:46:00,
2013-07-25 06:51:00,62.2,57.9,29.91,WSW,248,0.0,0.0,86,0.00,,,0.02,meteohub,2013-07-25 11:51:00,
2013-07-25 06:56:00,62.4,58.5,29.91,WSW,248,0.0,2.0,87,0.00,,,0.02,meteohub,2013-07-25 11:56:00,
2013-07-25 07:01:00,62.4,58.5,29.92,WSW,248,0.0,2.0,87,0.00,,,0.02,meteohub,2013-07-25 12:01:00,
2013-07-25 07:06:00,62.4,58.5,29.92,WSW,248,0.0,2.0,87,0.00,,,0.02,meteohub,2013-07-25 12:06:00,
2013-07-25 07:12:00,62.4,58.5,29.92,WSW,248,0.0,1.0,87,0.00,,,0.02,meteohub,2013-07-25 12:12:00,
2013-07-25 07:17:00,62.8,58.8,29.92,WSW,248,0.0,1.0,87,0.00,,,0.02,meteohub,2013-07-25 12:17:00,
2013-07-25 07:22:00,62.8,58.8,29.92,WSW,248,0.0,0.0,87,0.00,,,0.02,meteohub,2013-07-25 12:22:00,
2013-07-25 07:27:00,63.0,59.4,29.92,WSW,248,0.0,0.0,88,0.00,,,0.02,meteohub,2013-07-25 12:27:00,
2013-07-25 07:32:00,63.0,59.4,29.92,WSW,248,0.0,0.0,88,0.00,,,0.02,meteohub,2013-07-25 12:32:00,
2013-07-25 07:37:00,63.1,59.5,29.92,WSW,248,0.0,0.0,88,0.00,,,0.02,meteohub,2013-07-25 12:37:00,
2013-07-25 07:42:00,63.5,59.9,29.92,WSW,248,0.0,0.0,88,0.00,,,0.02,meteohub,2013-07-25 12:42:00,
2013-07-25 07:48:00,63.9,60.6,29.92,WSW,248,0.0,0.0,89,0.00,,,0.02,meteohub,2013-07-25 12:48:00,
2013-07-25 07:53:00,64.4,61.2,29.93,WSW,256,0.0,1.0,89,0.00,,,0.02,meteohub,2013-07-25 12:53:00,
2013-07-25 07:58:00,64.9,61.7,29.93,WSW,256,0.0,1.0,89,0.00,,,0.02,meteohub,2013-07-25 12:58:00,
2013-07-25 08:04:00,65.5,62.2,29.92,West,259,0.0,1.0,89,0.00,,,0.02,meteohub,2013-07-25 13:04:00,
2013-07-25 08:09:00,65.8,62.4,29.93,West,259,0.0,1.0,89,0.00,,,0.02,meteohub,2013-07-25 13:09:00,
2013-07-25 08:14:00,66.4,62.8,29.93,West,261,0.0,1.0,88,0.00,,,0.02,meteohub,2013-07-25 13:14:00,
2013-07-25 08:19:00,66.7,63.1,29.92,West,271,0.0,1.0,88,0.00,,,0.02,meteohub,2013-07-25 13:19:00,
2013-07-25 08:25:00,67.5,63.9,29.92,West,272,0.0,3.0,88,0.00,,,0.02,meteohub,2013-07-25 13:25:00,
2013-07-25 08:30:00,67.6,64.0,29.92,West,272,0.0,3.0,88,0.00,,,0.02,meteohub,2013-07-25 13:30:00,
2013-07-25 08:35:00,68.0,64.4,29.92,West,272,0.0,1.0,88,0.00,,,0.02,meteohub,2013-07-25 13:35:00,
2013-07-25 08:40:00,68.4,64.4,29.93,West,271,0.0,1.0,87,0.00,,,0.02,meteohub,2013-07-25 13:40:00,
2013-07-25 08:45:00,68.5,64.6,29.93,WNW,300,0.0,0.0,87,0.00,,,0.02,meteohub,2013-07-25 13:45:00,
2013-07-25 08:50:00,68.7,64.4,29.92,NW,318,0.0,1.0,86,0.00,,,0.02,meteohub,2013-07-25 13:50:00,
2013-07-25 08:56:00,68.9,64.2,29.92,NNW,329,0.0,1.0,85,0.00,,,0.02,meteohub,2013-07-25 13:56:00,
2013-07-25 09:01:00,69.3,64.6,29.92,NW,321,0.0,1.0,85,0.00,,,0.02,meteohub,2013-07-25 14:01:00,
2013-07-25 09:06:00,69.6,64.9,29.92,NW,321,0.0,1.0,85,0.00,,,0.02,meteohub,2013-07-25 14:06:00,
2013-07-25 09:11:00,70.0,65.3,29.92,NW,320,0.0,2.0,85,0.00,,,0.02,meteohub,2013-07-25 14:11:00,
2013-07-25 09:17:00,70.0,64.9,29.92,North,355,0.0,2.0,84,0.00,,,0.02,meteohub,2013-07-25 14:17:00,
2013-07-25 09:22:00,70.2,65.1,29.92,North,355,0.0,3.0,84,0.00,,,0.02,meteohub,2013-07-25 14:22:00,
2013-07-25 09:27:00,70.3,64.9,29.92,NNE,26,0.0,3.0,83,0.00,,,0.02,meteohub,2013-07-25 14:27:00,
2013-07-25 09:32:00,70.7,65.3,29.93,ENE,71,0.0,1.0,83,0.00,,,0.02,meteohub,2013-07-25 14:32:00,
2013-07-25 09:37:00,71.1,65.3,29.92,North,9,0.0,1.0,82,0.00,,,0.02,meteohub,2013-07-25 14:37:00,
2013-07-25 09:42:00,71.2,65.5,29.92,WNW,294,1.0,1.0,82,0.00,,,0.02,meteohub,2013-07-25 14:42:00,
2013-07-25 09:47:00,71.6,65.5,29.92,West,259,0.0,1.0,81,0.00,,,0.02,meteohub,2013-07-25 14:47:00,
2013-07-25 09:53:00,72.0,65.8,29.92,West,259,0.0,3.0,81,0.00,,,0.02,meteohub,2013-07-25 14:53:00,
2013-07-25 09:58:00,72.1,65.7,29.92,WNW,284,0.0,3.0,80,0.00,,,0.02,meteohub,2013-07-25 14:58:00,
2013-07-25 10:03:00,72.3,65.8,29.92,WSW,252,0.0,2.0,80,0.00,,,0.02,meteohub,2013-07-25 15:03:00,
2013-07-25 10:08:00,72.9,66.4,29.92,WSW,253,0.0,3.0,80,0.00,,,0.02,meteohub,2013-07-25 15:08:00,
2013-07-25 10:14:00,73.0,66.2,29.92,West,261,0.0,3.0,79,0.00,,,0.02,meteohub,2013-07-25 15:14:00,
2013-07-25 10:19:00,73.2,66.4,29.92,West,262,1.0,3.0,79,0.00,,,0.02,meteohub,2013-07-25 15:19:00,
2013-07-25 10:24:00,73.6,66.4,29.92,WNW,303,0.0,4.0,78,0.00,,,0.02,meteohub,2013-07-25 15:24:00,
2013-07-25 10:29:00,73.8,66.4,29.92,WNW,302,0.0,4.0,78,0.00,,,0.02,meteohub,2013-07-25 15:29:00,
2013-07-25 10:34:00,74.1,66.4,29.92,West,272,0.0,3.0,77,0.00,,,0.02,meteohub,2013-07-25 15:34:00,
2013-07-25 10:39:00,74.5,66.7,29.92,West,263,0.0,5.0,77,0.00,,,0.02,meteohub,2013-07-25 15:39:00,
2013-07-25 10:45:00,74.7,66.6,29.92,NNW,338,0.0,5.0,76,0.00,,,0.02,meteohub,2013-07-25 15:45:00,
2013-07-25 10:50:00,74.8,66.4,29.92,NNW,338,0.0,5.0,75,0.00,,,0.02,meteohub,2013-07-25 15:50:00,
2013-07-25 10:55:00,75.0,66.6,29.92,West,268,0.0,4.0,75,0.00,,,0.02,meteohub,2013-07-25 15:55:00,
2013-07-25 11:00:00,75.4,66.6,29.92,WSW,256,0.0,4.0,74,0.00,,,0.02,meteohub,2013-07-25 16:00:00,
2013-07-25 11:05:00,75.6,66.7,29.92,WSW,257,0.0,4.0,74,0.00,,,0.02,meteohub,2013-07-25 16:05:00,
2013-07-25 11:10:00,75.9,67.1,29.92,WSW,258,0.0,4.0,74,0.00,,,0.02,meteohub,2013-07-25 16:10:00,
2013-07-25 11:16:00,76.3,67.5,29.92,West,276,1.0,3.0,74,0.00,,,0.02,meteohub,2013-07-25 16:16:00,
2013-07-25 11:21:00,76.3,66.9,29.92,West,262,0.0,5.0,73,0.00,,,0.02,meteohub,2013-07-25 16:21:00,
2013-07-25 11:26:00,76.5,67.1,29.93,West,261,0.0,5.0,73,0.00,,,0.02,meteohub,2013-07-25 16:26:00,
2013-07-25 11:31:00,76.6,67.3,29.92,West,275,0.0,5.0,73,0.00,,,0.02,meteohub,2013-07-25 16:31:00,
2013-07-25 11:36:00,76.8,67.5,29.92,WNW,299,0.0,3.0,73,0.00,,,0.02,meteohub,2013-07-25 16:36:00,
2013-07-25 11:42:00,76.8,67.5,29.92,WNW,296,2.0,3.0,73,0.00,,,0.02,meteohub,2013-07-25 16:42:00,
2013-07-25 11:47:00,76.8,67.1,29.92,West,269,0.0,4.0,72,0.00,,,0.02,meteohub,2013-07-25 16:47:00,
2013-07-25 11:52:00,76.8,67.1,29.92,West,268,0.0,4.0,72,0.00,,,0.02,meteohub,2013-07-25 16:52:00,
2013-07-25 11:57:00,76.8,67.1,29.92,West,267,1.0,4.0,72,0.00,,,0.02,meteohub,2013-07-25 16:57:00,
2013-07-25 12:02:00,77.0,67.3,29.92,West,268,0.0,3.0,72,0.00,,,0.02,meteohub,2013-07-25 17:02:00,
2013-07-25 12:07:00,77.2,67.8,29.93,West,268,0.0,3.0,73,0.00,,,0.02,meteohub,2013-07-25 17:07:00,
2013-07-25 12:13:00,77.4,68.0,29.93,West,271,0.0,3.0,73,0.00,,,0.02,meteohub,2013-07-25 17:13:00,
2013-07-25 12:18:00,77.5,68.5,29.93,West,271,0.0,2.0,74,0.00,,,0.02,meteohub,2013-07-25 17:18:00,
2013-07-25 12:23:00,77.5,68.2,29.93,SW,232,1.0,3.0,73,0.00,,,0.02,meteohub,2013-07-25 17:23:00,
2013-07-25 12:28:00,77.7,68.0,29.92,WSW,246,0.0,3.0,72,0.00,,,0.02,meteohub,2013-07-25 17:28:00,
2013-07-25 12:33:00,77.7,68.0,29.92,WNW,294,0.0,4.0,72,0.00,,,0.02,meteohub,2013-07-25 17:33:00,
2013-07-25 12:38:00,78.1,68.4,29.92,WSW,250,0.0,4.0,72,0.00,,,0.02,meteohub,2013-07-25 17:38:00,
2013-07-25 12:43:00,78.1,68.4,29.93,WSW,252,0.0,3.0,72,0.00,,,0.02,meteohub,2013-07-25 17:43:00,
2013-07-25 12:48:00,78.3,68.0,29.92,WSW,243,0.0,5.0,71,0.00,,,0.02,meteohub,2013-07-25 17:48:00,
2013-07-25 12:53:00,78.3,68.0,29.92,West,274,0.0,5.0,71,0.00,,,0.02,meteohub,2013-07-25 17:53:00,
2013-07-25 12:59:00,78.6,68.4,29.92,WNW,300,2.0,5.0,71,0.00,,,0.02,meteohub,2013-07-25 17:59:00,
2013-07-25 13:04:00,78.6,68.4,29.92,NW,313,0.0,4.0,71,0.00,,,0.02,meteohub,2013-07-25 18:04:00,
2013-07-25 13:09:00,78.6,68.4,29.92,West,261,0.0,4.0,71,0.00,,,0.02,meteohub,2013-07-25 18:09:00,
2013-07-25 13:14:00,79.0,68.7,29.91,West,281,0.0,4.0,71,0.00,,,0.02,meteohub,2013-07-25 18:14:00,
2013-07-25 13:19:00,79.0,68.7,29.91,West,262,0.0,1.0,71,0.00,,,0.02,meteohub,2013-07-25 18:19:00,
2013-07-25 13:24:00,79.0,68.7,29.91,SE,141,0.0,3.0,71,0.00,,,0.02,meteohub,2013-07-25 18:24:00,
2013-07-25 13:30:00,79.0,68.4,29.91,North,0,0.0,4.0,70,0.00,,,0.02,meteohub,2013-07-25 18:30:00,
2013-07-25 13:35:00,79.2,68.9,29.91,NNE,33,0.0,4.0,71,0.00,,,0.02,meteohub,2013-07-25 18:35:00,
2013-07-25 13:40:00,79.3,68.7,29.91,ENE,66,0.0,4.0,70,0.00,,,0.02,meteohub,2013-07-25 18:40:00,
2013-07-25 13:45:00,79.5,68.9,29.90,NE,52,0.0,5.0,70,0.00,,,0.02,meteohub,2013-07-25 18:45:00,
2013-07-25 13:50:00,79.9,68.7,29.89,NNE,32,0.0,5.0,69,0.00,,,0.02,meteohub,2013-07-25 18:50:00,
2013-07-25 13:55:00,80.2,69.1,29.89,NNE,23,0.0,1.0,69,0.00,,,0.02,meteohub,2013-07-25 18:55:00,
2013-07-25 14:00:00,80.8,69.6,29.89,WSW,238,0.0,1.0,69,0.00,,,0.02,meteohub,2013-07-25 19:00:00,
2013-07-25 14:05:00,81.0,68.0,29.89,NE,45,0.0,2.0,65,0.00,,,0.02,meteohub,2013-07-25 19:05:00,
2013-07-25 14:11:00,81.1,67.3,29.89,NE,55,0.0,3.0,63,0.00,,,0.02,meteohub,2013-07-25 19:11:00,
2013-07-25 14:17:00,81.1,66.9,29.90,North,355,0.0,3.0,62,0.00,,,0.02,meteohub,2013-07-25 19:17:00,
2013-07-25 14:22:00,81.0,64.8,29.90,ENE,66,0.0,2.0,58,0.00,,,0.02,meteohub,2013-07-25 19:22:00,
2013-07-25 14:27:00,81.0,64.8,29.90,NNE,30,0.0,2.0,58,0.00,,,0.02,meteohub,2013-07-25 19:27:00,
2013-07-25 14:32:00,80.8,63.7,29.91,ENE,59,0.0,1.0,56,0.00,,,0.02,meteohub,2013-07-25 19:32:00,
2013-07-25 14:37:00,80.8,64.6,29.91,NNE,21,0.0,1.0,58,0.00,,,0.02,meteohub,2013-07-25 19:37:00,
2013-07-25 14:42:00,80.8,65.1,29.91,NNE,18,0.0,2.0,59,0.00,,,0.02,meteohub,2013-07-25 19:42:00,
2013-07-25 14:47:00,80.6,64.9,29.91,NE,52,0.0,2.0,59,0.00,,,0.02,meteohub,2013-07-25 19:47:00,
2013-07-25 14:53:00,80.2,64.0,29.91,NE,52,0.0,2.0,58,0.00,,,0.02,meteohub,2013-07-25 19:53:00,
2013-07-25 14:58:00,80.1,63.5,29.91,ENE,57,0.0,1.0,57,0.00,,,0.02,meteohub,2013-07-25 19:58:00,
2013-07-25 15:03:00,79.9,63.9,29.91,ENE,61,0.0,1.0,58,0.00,,,0.02,meteohub,2013-07-25 20:03:00,
2013-07-25 15:08:00,79.5,63.0,29.91,NE,42,0.0,1.0,57,0.00,,,0.02,meteohub,2013-07-25 20:08:00,
2013-07-25 15:14:00,79.9,63.3,29.91,NE,49,0.0,2.0,57,0.00,,,0.02,meteohub,2013-07-25 20:14:00,
2013-07-25 15:19:00,80.4,63.3,29.91,NE,53,0.0,2.0,56,0.00,,,0.02,meteohub,2013-07-25 20:19:00,
2013-07-25 15:24:00,80.8,63.7,29.91,NE,53,0.0,2.0,56,0.00,,,0.02,meteohub,2013-07-25 20:24:00,
2013-07-25 15:29:00,81.1,63.5,29.91,NE,46,0.0,1.0,55,0.00,,,0.02,meteohub,2013-07-25 20:29:00,
2013-07-25 15:34:00,81.1,63.0,29.91,North,5,0.0,1.0,54,0.00,,,0.02,meteohub,2013-07-25 20:34:00,
2013-07-25 15:39:00,81.3,64.6,29.91,North,5,0.0,3.0,57,0.00,,,0.02,meteohub,2013-07-25 20:39:00,
2013-07-25 15:45:00,81.7,64.9,29.90,North,0,0.0,3.0,57,0.00,,,0.02,meteohub,2013-07-25 20:45:00,
2013-07-25 15:50:00,81.5,64.8,29.90,North,5,0.0,1.0,57,0.00,,,0.02,meteohub,2013-07-25 20:50:00,
2013-07-25 15:55:00,81.3,65.1,29.90,ENE,74,0.0,1.0,58,0.00,,,0.02,meteohub,2013-07-25 20:55:00,
2013-07-25 16:00:00,81.0,65.3,29.88,ENE,74,0.0,2.0,59,0.00,,,0.02,meteohub,2013-07-25 21:00:00,
2013-07-25 16:05:00,80.8,65.1,29.88,ENE,74,0.0,2.0,59,0.00,,,0.02,meteohub,2013-07-25 21:05:00,
2013-07-25 16:10:00,81.0,65.8,29.88,ENE,74,0.0,1.0,60,0.00,,,0.02,meteohub,2013-07-25 21:10:00,
2013-07-25 16:16:00,81.3,65.7,29.88,North,9,0.0,1.0,59,0.00,,,0.02,meteohub,2013-07-25 21:16:00,
2013-07-25 16:21:00,81.7,64.9,29.88,NE,46,0.0,1.0,57,0.00,,,0.02,meteohub,2013-07-25 21:21:00,
2013-07-25 16:26:00,81.9,64.6,29.88,NE,46,0.0,1.0,56,0.00,,,0.02,meteohub,2013-07-25 21:26:00,
2013-07-25 16:31:00,81.9,64.6,29.88,NE,46,0.0,1.0,56,0.00,,,0.02,meteohub,2013-07-25 21:31:00,
2013-07-25 16:36:00,82.0,64.2,29.88,NE,46,0.0,1.0,55,0.00,,,0.02,meteohub,2013-07-25 21:36:00,
2013-07-25 16:42:00,82.2,65.5,29.87,NE,46,0.0,0.0,57,0.00,,,0.02,meteohub,2013-07-25 21:42:00,
2013-07-25 16:47:00,82.6,65.3,29.87,NE,46,0.0,0.0,56,0.00,,,0.02,meteohub,2013-07-25 21:47:00,
2013-07-25 16:52:00,82.6,64.2,29.87,NE,46,0.0,0.0,54,0.00,,,0.02,meteohub,2013-07-25 21:52:00,
2013-07-25 16:57:00,82.6,63.7,29.87,NE,46,0.0,0.0,53,0.00,,,0.02,meteohub,2013-07-25 21:57:00,
2013-07-25 17:02:00,82.2,63.3,29.87,NE,46,0.0,0.0,53,0.00,,,0.02,meteohub,2013-07-25 22:02:00,
2013-07-25 17:07:00,82.2,64.4,29.87,NE,46,0.0,0.0,55,0.00,,,0.02,meteohub,2013-07-25 22:07:00,
2013-07-25 17:12:00,81.9,64.6,29.87,NE,46,0.0,0.0,56,0.00,,,0.02,meteohub,2013-07-25 22:12:00,
2013-07-25 17:17:00,81.7,63.5,29.88,NE,44,0.0,1.0,54,0.00,,,0.02,meteohub,2013-07-25 22:17:00,
2013-07-25 17:23:00,81.5,63.3,29.88,NNW,336,0.0,1.0,54,0.00,,,0.02,meteohub,2013-07-25 22:23:00,
2013-07-25 17:28:00,81.3,62.6,29.88,NW,323,0.0,1.0,53,0.00,,,0.02,meteohub,2013-07-25 22:28:00,
2013-07-25 17:33:00,81.3,63.1,29.88,NW,319,0.0,1.0,54,0.00,,,0.02,meteohub,2013-07-25 22:33:00,
2013-07-25 17:38:00,81.5,62.8,29.88,NW,318,0.0,1.0,53,0.00,,,0.02,meteohub,2013-07-25 22:38:00,
2013-07-25 17:43:00,81.9,63.0,29.88,West,281,1.0,1.0,53,0.00,,,0.02,meteohub,2013-07-25 22:43:00,
2013-07-25 17:49:00,81.9,63.0,29.87,West,281,0.0,2.0,53,0.00,,,0.02,meteohub,2013-07-25 22:49:00,
2013-07-25 17:54:00,81.7,63.0,29.87,West,277,0.0,2.0,53,0.00,,,0.02,meteohub,2013-07-25 22:54:00,
2013-07-25 17:59:00,81.7,63.0,29.87,WNW,286,0.0,2.0,53,0.00,,,0.02,meteohub,2013-07-25 22:59:00,
2013-07-25 18:04:00,81.7,64.9,29.87,WNW,286,0.0,1.0,57,0.00,,,0.02,meteohub,2013-07-25 23:04:00,
2013-07-25 18:09:00,81.3,65.1,29.87,WNW,285,0.0,1.0,58,0.00,,,0.02,meteohub,2013-07-25 23:09:00,
2013-07-25 18:15:00,81.1,64.9,29.87,WNW,285,0.0,1.0,58,0.00,,,0.02,meteohub,2013-07-25 23:15:00,
2013-07-25 18:20:00,81.0,65.3,29.86,WNW,285,0.0,1.0,59,0.00,,,0.02,meteohub,2013-07-25 23:20:00,
2013-07-25 18:25:00,80.8,65.7,29.86,WNW,285,0.0,1.0,60,0.00,,,0.02,meteohub,2013-07-25 23:25:00,
2013-07-25 18:30:00,80.8,66.6,29.86,WNW,284,0.0,1.0,62,0.00,,,0.02,meteohub,2013-07-25 23:30:00,
2013-07-25 18:35:00,80.4,66.2,29.86,WNW,287,0.0,0.0,62,0.00,,,0.02,meteohub,2013-07-25 23:35:00,
2013-07-25 18:41:00,80.2,66.0,29.86,WNW,286,0.0,0.0,62,0.00,,,0.02,meteohub,2013-07-25 23:41:00,
2013-07-25 18:46:00,80.1,66.4,29.86,WNW,286,0.0,0.0,63,0.00,,,0.02,meteohub,2013-07-25 23:46:00,
2013-07-25 18:52:00,79.9,65.7,29.86,WNW,287,0.0,0.0,62,0.00,,,0.02,meteohub,2013-07-25 23:52:00,
2013-07-25 18:57:00,79.7,65.5,29.86,WNW,288,0.0,0.0,62,0.00,,,0.02,meteohub,2013-07-25 23:57:00,
2013-07-25 19:02:00,79.5,65.3,29.86,North,350,0.0,0.0,62,0.00,,,0.02,meteohub,2013-07-26 00:02:00,
2013-07-25 19:07:00,79.5,64.9,29.86,North,350,0.0,1.0,61,0.00,,,0.00,meteohub,2013-07-26 00:07:00,
2013-07-25 19:12:00,79.3,65.1,29.86,North,350,0.0,1.0,62,0.00,,,0.00,meteohub,2013-07-26 00:12:00,
2013-07-25 19:17:00,79.3,65.1,29.86,North,350,0.0,1.0,62,0.00,,,0.00,meteohub,2013-07-26 00:17:00,
2013-07-25 19:22:00,79.3,65.1,29.86,North,0,0.0,1.0,62,0.00,,,0.00,meteohub,2013-07-26 00:22:00,
2013-07-25 19:27:00,79.3,65.7,29.86,North,5,0.0,0.0,63,0.00,,,0.00,meteohub,2013-07-26 00:27:00,
2013-07-25 19:32:00,79.3,66.6,29.87,North,5,0.0,0.0,65,0.00,,,0.00,meteohub,2013-07-26 00:32:00,
2013-07-25 19:37:00,79.2,65.5,29.87,NNE,21,0.0,0.0,63,0.00,,,0.00,meteohub,2013-07-26 00:37:00,
2013-07-25 19:43:00,79.0,64.4,29.86,NNE,22,0.0,1.0,61,0.00,,,0.00,meteohub,2013-07-26 00:43:00,
2013-07-25 19:48:00,78.6,63.5,29.86,NNE,22,0.0,1.0,60,0.00,,,0.00,meteohub,2013-07-26 00:48:00,
2013-07-25 19:53:00,78.6,63.5,29.87,NNE,22,0.0,1.0,60,0.00,,,0.00,meteohub,2013-07-26 00:53:00,
2013-07-25 19:58:00,78.4,63.3,29.87,NNE,21,0.0,1.0,60,0.00,,,0.00,meteohub,2013-07-26 00:58:00,
2013-07-25 20:03:00,78.3,62.8,29.87,NNE,22,0.0,0.0,59,0.00,,,0.00,meteohub,2013-07-26 01:03:00,
2013-07-25 20:08:00,78.3,62.8,29.87,NNE,22,0.0,0.0,59,0.00,,,0.00,meteohub,2013-07-26 01:08:00,
2013-07-25 20:13:00,78.1,62.1,29.87,NNE,22,0.0,0.0,58,0.00,,,0.00,meteohub,2013-07-26 01:13:00,
2013-07-25 20:19:00,77.9,61.9,29.87,NNE,22,0.0,0.0,58,0.00,,,0.00,meteohub,2013-07-26 01:19:00,
2013-07-25 20:24:00,77.7,61.3,29.87,NNE,22,0.0,0.0,57,0.00,,,0.00,meteohub,2013-07-26 01:24:00,
2013-07-25 20:29:00,77.7,61.3,29.87,NNE,22,0.0,0.0,57,0.00,,,0.00,meteohub,2013-07-26 01:29:00,
2013-07-25 20:34:00,77.5,61.2,29.88,NNE,22,0.0,0.0,57,0.00,,,0.00,meteohub,2013-07-26 01:34:00,
2013-07-25 20:39:00,77.4,61.0,29.87,NNE,22,0.0,0.0,57,0.00,,,0.00,meteohub,2013-07-26 01:39:00,
2013-07-25 20:45:00,77.4,61.0,29.87,NNE,22,0.0,0.0,57,0.00,,,0.00,meteohub,2013-07-26 01:45:00,
2013-07-25 20:50:00,77.2,61.3,29.87,NNE,22,0.0,0.0,58,0.00,,,0.00,meteohub,2013-07-26 01:50:00,
2013-07-25 20:55:00,77.2,61.7,29.87,NNE,22,0.0,0.0,59,0.00,,,0.00,meteohub,2013-07-26 01:55:00,
2013-07-25 21:00:00,77.0,61.5,29.87,NNE,22,0.0,0.0,59,0.00,,,0.00,meteohub,2013-07-26 02:00:00,
2013-07-25 21:05:00,76.8,61.9,29.88,NNE,22,0.0,0.0,60,0.00,,,0.00,meteohub,2013-07-26 02:05:00,
2013-07-25 21:11:00,76.6,62.2,29.88,NNE,22,0.0,0.0,61,0.00,,,0.00,meteohub,2013-07-26 02:11:00,
2013-07-25 21:16:00,76.5,61.5,29.88,NNE,22,0.0,0.0,60,0.00,,,0.00,meteohub,2013-07-26 02:16:00,
2013-07-25 21:21:00,76.3,61.9,29.88,NNE,22,0.0,0.0,61,0.00,,,0.00,meteohub,2013-07-26 02:21:00,
2013-07-25 21:26:00,75.9,61.5,29.88,NNE,22,0.0,0.0,61,0.00,,,0.00,meteohub,2013-07-26 02:26:00,
2013-07-25 21:31:00,75.7,61.9,29.89,NNW,331,0.0,1.0,62,0.00,,,0.00,meteohub,2013-07-26 02:31:00,
2013-07-25 21:36:00,75.4,61.9,29.89,NNW,331,0.0,1.0,63,0.00,,,0.00,meteohub,2013-07-26 02:36:00,
2013-07-25 21:42:00,75.2,61.7,29.88,NNW,331,0.0,1.0,63,0.00,,,0.00,meteohub,2013-07-26 02:42:00,
2013-07-25 21:47:00,75.0,62.1,29.89,NNW,331,0.0,0.0,64,0.00,,,0.00,meteohub,2013-07-26 02:47:00,
2013-07-25 21:52:00,74.8,61.9,29.89,NNW,331,0.0,0.0,64,0.00,,,0.00,meteohub,2013-07-26 02:52:00,
2013-07-25 21:57:00,74.7,62.1,29.89,NNW,331,0.0,0.0,65,0.00,,,0.00,meteohub,2013-07-26 02:57:00,
2013-07-25 22:02:00,74.5,61.9,29.89,NNW,331,0.0,0.0,65,0.00,,,0.00,meteohub,2013-07-26 03:02:00,
2013-07-25 22:07:00,74.1,62.1,29.89,NNW,331,0.0,0.0,66,0.00,,,0.00,meteohub,2013-07-26 03:07:00,
2013-07-25 22:12:00,74.1,62.1,29.89,NNW,331,0.0,0.0,66,0.00,,,0.00,meteohub,2013-07-26 03:12:00,
2013-07-25 22:17:00,73.9,62.2,29.90,NNW,331,0.0,0.0,67,0.00,,,0.00,meteohub,2013-07-26 03:17:00,
2013-07-25 22:22:00,73.8,62.1,29.90,NNW,331,0.0,0.0,67,0.00,,,0.00,meteohub,2013-07-26 03:22:00,
2013-07-25 22:27:00,73.8,62.6,29.90,NNW,331,0.0,0.0,68,0.00,,,0.00,meteohub,2013-07-26 03:27:00,
2013-07-25 22:32:00,73.6,62.8,29.90,NNW,331,0.0,0.0,69,0.00,,,0.00,meteohub,2013-07-26 03:32:00,
2013-07-25 22:38:00,73.6,63.1,29.89,NNW,327,1.0,0.0,70,0.00,,,0.00,meteohub,2013-07-26 03:38:00,
2013-07-25 22:43:00,73.4,63.9,29.89,NNW,327,0.0,0.0,72,0.00,,,0.00,meteohub,2013-07-26 03:43:00,
2013-07-25 22:48:00,73.4,64.2,29.89,NNW,327,0.0,1.0,73,0.00,,,0.00,meteohub,2013-07-26 03:48:00,
2013-07-25 22:53:00,73.2,64.4,29.89,NW,320,0.0,1.0,74,0.00,,,0.00,meteohub,2013-07-26 03:53:00,
2013-07-25 22:58:00,73.2,64.4,29.89,NW,320,0.0,1.0,74,0.00,,,0.00,meteohub,2013-07-26 03:58:00,
2013-07-25 23:01:00,73.2,64.8,29.89,NW,319,0.0,1.0,75,0.00,,,0.00,meteohub,2013-07-26 04:01:00,
2013-07-25 23:02:00,73.2,64.8,29.89,NW,319,0.0,1.0,75,0.00,,,0.00,meteohub,2013-07-26 04:02:00,
2013-07-25 23:06:00,73.0,64.9,29.89,WNW,299,3.0,3.0,76,0.00,,,0.00,meteohub,2013-07-26 04:06:00,
2013-07-25 23:12:00,73.0,65.5,29.89,NW,306,1.0,3.0,77,0.00,,,0.00,meteohub,2013-07-26 04:12:00,
2013-07-25 23:17:00,72.9,65.3,29.88,NW,306,0.0,4.0,77,0.00,,,0.00,meteohub,2013-07-26 04:17:00,
2013-07-25 23:22:00,72.7,65.1,29.88,West,275,0.0,4.0,77,0.00,,,0.00,meteohub,2013-07-26 04:22:00,
2013-07-25 23:27:00,72.5,64.9,29.88,West,263,0.0,6.0,77,0.00,,,0.00,meteohub,2013-07-26 04:27:00,
2013-07-25 23:32:00,72.3,65.1,29.88,West,263,0.0,6.0,78,0.00,,,0.00,meteohub,2013-07-26 04:32:00,
2013-07-25 23:37:00,72.3,65.1,29.88,West,266,0.0,3.0,78,0.00,,,0.00,meteohub,2013-07-26 04:37:00,
2013-07-25 23:42:00,72.1,64.9,29.88,WNW,294,0.0,3.0,78,0.00,,,0.00,meteohub,2013-07-26 04:42:00,
2013-07-25 23:47:00,72.0,65.1,29.88,North,350,0.0,2.0,79,0.00,,,0.00,meteohub,2013-07-26 04:47:00,
2013-07-25 23:52:00,72.0,65.1,29.88,WNW,299,0.0,3.0,79,0.00,,,0.00,meteohub,2013-07-26 04:52:00,
2013-07-25 23:57:00,72.0,65.1,29.88,West,267,4.0,4.0,79,0.00,,,0.00,meteohub,2013-07-26 04:57:00,